This is the latest recevied weather packets stored in our database for station/object KG2V. If no packets are shown the sender has not sent any weather packets the latest 10 day(s).
| Time | Temp. | Humidity | Pressure | Rain* | Wind** | Luminosity | Snow |
|---|---|---|---|---|---|---|---|
| 1778207035 | 6.67° C | 85% | 1007.6 hPa | 0 mm | - | 0 W/m² | - |
| 1778206733 | 6.67° C | 84% | 1007.6 hPa | 0 mm | - | 0 W/m² | - |
| 1778206429 | 6.67° C | 84% | 1007.4 hPa | 0 mm | - | 0 W/m² | - |
| 1778206125 | 6.67° C | 83% | 1007.5 hPa | 0 mm | - | 0 W/m² | - |
| 1778205823 | 6.67° C | 82% | 1007.5 hPa | 0 mm | - | 0 W/m² | - |
| 1778205520 | 6.67° C | 82% | 1007.3 hPa | 0 mm | - | 0 W/m² | - |
| 1778205218 | 6.67° C | 82% | 1007.3 hPa | 0 mm | - | 0 W/m² | - |
| 1778204914 | 6.67° C | 82% | 1007.2 hPa | 0 mm | - | 0 W/m² | - |
| 1778204611 | 6.67° C | 81% | 1007.2 hPa | 0 mm | - | 0 W/m² | - |
| 1778204306 | 6.67° C | 81% | 1007.3 hPa | 0 mm | - | 0 W/m² | - |
| 1778204003 | 7.22° C | 80% | 1007.1 hPa | 0 mm | - | 0 W/m² | - |
| 1778203700 | 7.22° C | 78% | 1007 hPa | 0 mm | - | 0 W/m² | - |
| 1778203397 | 7.22° C | 78% | 1007.3 hPa | 0 mm | - | 0 W/m² | - |
| 1778203095 | 7.22° C | 76% | 1007.1 hPa | 0 mm | - | 0 W/m² | - |
| 1778202793 | 7.78° C | 75% | 1007 hPa | 0 mm | - | 0 W/m² | - |
| 1778202489 | 7.78° C | 74% | 1007.1 hPa | 0 mm | - | 0 W/m² | - |
| 1778202187 | 7.78° C | 75% | 1006.9 hPa | 0 mm | - | 0 W/m² | - |
| 1778201884 | 7.78° C | 73% | 1006.6 hPa | 0 mm | - | 0 W/m² | - |
| 1778201580 | 7.78° C | 70% | 1006.5 hPa | 0 mm | - | 0 W/m² | - |
| 1778201276 | 7.78° C | 70% | 1006.4 hPa | 0 mm | - | 0 W/m² | - |
| 1778200973 | 7.78° C | 70% | 1006.2 hPa | 0 mm | - | 0 W/m² | - |
| 1778200669 | 7.78° C | 70% | 1006.3 hPa | 0 mm | - | 0 W/m² | - |
| 1778200367 | 7.78° C | 71% | 1006.3 hPa | 0 mm | - | 0 W/m² | - |
| 1778200063 | 7.78° C | 68% | 1006.4 hPa | 0 mm | - | 0 W/m² | - |
| 1778199761 | 7.78° C | 70% | 1006.4 hPa | 0 mm | - | 1 W/m² | - |
* Rain latest hour (hover to see other rain measurements)
** Current wind speed in m/s (hover to see current wind gust speed)